Regional Weather Roundup
Issued by NWS Nashville, TN

Home | Current Version | Previous Version | Text Only | Print | Product List | Glossary On
Versions: 1 2 3 4 5 6 7 8 9 10 11 12 13 14 15 16 17 18 19 20 21 22 23 24 25 26 27 28 29 30 31 32 33 34 35 36 37 38 39 40 41 42 43 44 45 46 47 48 49 50
000
ASUS44 KOHX 272015
RWROHX
MIDDLE TENNESSEE HOURLY WEATHER ROUNDUP
NATIONAL WEATHER SERVICE NASHVILLE TN
300 PM CDT WED AUG 27 2014

NOTE: "FAIR" INDICATES FEW OR NO CLOUDS BELOW 12,000 FEET WITH
NO SIGNIFICANT WEATHER AND/OR OBSTRUCTIONS TO VISIBILITY.

* THESE REPORTS ARE NOT UNDER NWS QUALITY CONTROL AND MAY NOT
  REPORT WEATHER SUCH AS PRECIPITATION AND FOG.


TNZ005>011-023>034-057-059-062>066-078-080-272100
...NORTHERN MIDDLE TENNESSEE...

CITY           SKY/WX    TMP DP  RH WIND       PRES   REMARKS
CLARKSVILLE    PTSUNNY   81  72  74 S3        30.06F
CROSSVILLE     PTSUNNY   83  61  47 N6        30.13F
GALLATIN         N/A     91  72  53 E8        30.08F HX  98
DICKSON        MOSUNNY   88  72  58 E3        30.07F HX  94
LEBANON        MOSUNNY   89  69  51 NE7       30.06F HX  93
NASHVILLE      PTSUNNY   90  69  50 E8        30.07F HX  94
WEST NASHVILLE   N/A     90  70  51 NE5       30.05F HX  95
PORTLAND       MOSUNNY   88  72  58 VRB5      30.07F HX  94
SMYRNA         MOSUNNY   91  71  51 NE12      30.06F HX  97
SPARTA         SUNNY     90  66  45 VRB5      30.08F HX  92
$$
TNZ056-058-060-061-075>077-079-093>097-272100
...SOUTHERN MIDDLE TENNESSEE...

CITY           SKY/WX    TMP DP  RH WIND       PRES   REMARKS
COLUMBIA       SUNNY     90  72  55 CALM      30.05F HX  96
FAYETTEVILLE   MOSUNNY   84  64  51 CALM      30.08F
LEWISBURG      SUNNY     90  70  51 W5        30.06F HX  95
MCMINNVILLE    SUNNY     88  66  48 N3        30.09F HX  90
MURFREESBORO   SUNNY     89  66  46 NE7       30.06F HX  91
SHELBYVILLE    MOSUNNY   90  72  55 N8        30.07F HX  96
TULLAHOMA      MOSUNNY   88  63  42 N5        30.09F
WINCHESTER       N/A     86  68  54 NW5       30.08F
$$


...KEY TO REMARKS...
VSB - VISIBILITY IN MILES
WCI - WIND CHILL INDEX
HX  - HEAT INDEX



USA.gov is the U.S. government's official web portal to all federal, state and local government web resources and services.